Time,TemperatureF,DewpointF,PressureIn,WindDirection,WindDirectionDegrees,WindSpeedMPH,WindSpeedGustMPH,Humidity,HourlyPrecipIn,Conditions,Clouds,dailyrainin,SoftwareType,DateUTC
2013-10-19 00:02:00,31.0,28.1,30.20,SW,225,0.0,3.0,89,0.00,,,0.00,Weather View 32 v70,2013-10-19 05:02:00,
2013-10-19 00:07:00,31.0,28.1,30.20,SW,225,0.0,2.0,89,0.00,,,0.00,Weather View 32 v70,2013-10-19 05:07:00,
2013-10-19 00:12:00,31.0,28.7,30.20,SW,225,0.0,2.0,91,0.00,,,0.00,Weather View 32 v70,2013-10-19 05:12:00,
2013-10-19 00:17:00,31.0,28.7,30.19,SW,225,0.0,1.0,91,0.00,,,0.00,Weather View 32 v70,2013-10-19 05:17:00,
2013-10-19 00:22:00,32.0,30.5,30.19,WSW,247,1.0,5.0,94,0.00,,,0.00,Weather View 32 v70,2013-10-19 05:22:00,
2013-10-19 00:27:00,33.0,31.5,30.19,WSW,247,3.0,5.0,94,0.00,,,0.00,Weather View 32 v70,2013-10-19 05:27:00,
2013-10-19 00:32:00,33.0,31.7,30.19,WSW,247,0.0,6.0,95,0.00,,,0.00,Weather View 32 v70,2013-10-19 05:32:00,
2013-10-19 00:37:00,34.0,32.5,30.18,WSW,247,4.0,6.0,94,0.00,,,0.00,Weather View 32 v70,2013-10-19 05:37:00,
2013-10-19 00:42:00,34.0,32.5,30.18,WSW,247,4.0,6.0,94,0.00,,,0.00,Weather View 32 v70,2013-10-19 05:42:00,
2013-10-19 00:47:00,35.0,32.9,30.18,WSW,247,5.0,6.0,92,0.00,,,0.00,Weather View 32 v70,2013-10-19 05:47:00,
2013-10-19 00:52:00,35.0,32.6,30.18,WSW,247,1.0,6.0,91,0.00,,,0.00,Weather View 32 v70,2013-10-19 05:52:00,
2013-10-19 00:57:00,35.0,32.6,30.18,WSW,247,0.0,6.0,91,0.00,,,0.00,Weather View 32 v70,2013-10-19 05:57:00,
2013-10-19 01:02:00,34.0,31.9,30.18,WSW,247,3.0,6.0,92,0.00,,,0.00,Weather View 32 v70,2013-10-19 06:02:00,
2013-10-19 01:07:00,34.0,31.9,30.17,WSW,247,1.0,6.0,92,0.00,,,0.00,Weather View 32 v70,2013-10-19 06:07:00,
2013-10-19 01:12:00,33.0,30.9,30.17,WSW,247,0.0,6.0,92,0.00,,,0.00,Weather View 32 v70,2013-10-19 06:12:00,
2013-10-19 01:17:00,33.0,30.9,30.18,WSW,247,0.0,6.0,92,0.00,,,0.00,Weather View 32 v70,2013-10-19 06:17:00,
2013-10-19 01:22:00,32.0,30.2,30.18,WSW,247,0.0,6.0,93,0.00,,,0.00,Weather View 32 v70,2013-10-19 06:22:00,
2013-10-19 01:27:00,32.0,30.7,30.18,WSW,247,0.0,6.0,95,0.00,,,0.00,Weather View 32 v70,2013-10-19 06:27:00,
2013-10-19 01:32:00,32.0,31.0,30.18,WSW,247,0.0,6.0,96,0.00,,,0.00,Weather View 32 v70,2013-10-19 06:32:00,
2013-10-19 01:37:00,32.0,31.0,30.18,WSW,247,0.0,6.0,96,0.00,,,0.00,Weather View 32 v70,2013-10-19 06:37:00,
2013-10-19 01:42:00,31.0,30.0,30.18,WSW,247,0.0,6.0,96,0.00,,,0.00,Weather View 32 v70,2013-10-19 06:42:00,
2013-10-19 01:47:00,31.0,30.2,30.18,WSW,247,0.0,5.0,97,0.00,,,0.00,Weather View 32 v70,2013-10-19 06:47:00,
2013-10-19 01:52:00,30.0,29.3,30.18,WSW,247,0.0,5.0,97,0.00,,,0.00,Weather View 32 v70,2013-10-19 06:52:00,
2013-10-19 01:57:00,30.0,29.3,30.18,WSW,247,0.0,5.0,97,0.00,,,0.00,Weather View 32 v70,2013-10-19 06:57:00,
2013-10-19 02:02:00,30.0,29.3,30.18,WSW,247,0.0,5.0,97,0.00,,,0.00,Weather View 32 v70,2013-10-19 07:02:00,
2013-10-19 02:07:00,30.0,29.5,30.18,WSW,247,0.0,3.0,98,0.00,,,0.00,Weather View 32 v70,2013-10-19 07:07:00,
2013-10-19 02:12:00,29.0,28.5,30.18,SW,225,1.0,3.0,98,0.00,,,0.00,Weather View 32 v70,2013-10-19 07:12:00,
2013-10-19 02:17:00,30.0,29.5,30.18,SW,225,0.0,3.0,98,0.00,,,0.00,Weather View 32 v70,2013-10-19 07:17:00,
2013-10-19 02:22:00,30.0,29.5,30.18,SW,225,0.0,3.0,98,0.00,,,0.00,Weather View 32 v70,2013-10-19 07:22:00,
2013-10-19 02:27:00,30.0,30.0,30.18,SW,225,1.0,3.0,100,0.00,,,0.00,Weather View 32 v70,2013-10-19 07:27:00,
2013-10-19 02:32:00,31.0,30.8,30.18,WSW,247,2.0,6.0,99,0.00,,,0.00,Weather View 32 v70,2013-10-19 07:32:00,
2013-10-19 02:37:00,31.0,31.0,30.17,WSW,247,4.0,6.0,100,0.00,,,0.00,Weather View 32 v70,2013-10-19 07:37:00,
2013-10-19 02:42:00,31.0,31.0,30.17,WSW,247,4.0,6.0,100,0.00,,,0.00,Weather View 32 v70,2013-10-19 07:42:00,
2013-10-19 02:47:00,31.0,31.0,30.17,WSW,247,0.0,6.0,100,0.00,,,0.00,Weather View 32 v70,2013-10-19 07:47:00,
2013-10-19 02:52:00,31.0,31.0,30.17,SSW,202,0.0,6.0,100,0.00,,,0.00,Weather View 32 v70,2013-10-19 07:52:00,
2013-10-19 02:57:00,31.0,31.0,30.16,WSW,247,3.0,6.0,100,0.00,,,0.00,Weather View 32 v70,2013-10-19 07:57:00,
2013-10-19 03:02:00,32.0,32.0,30.16,WSW,247,7.0,8.0,100,0.00,,,0.00,Weather View 32 v70,2013-10-19 08:02:00,
2013-10-19 03:07:00,32.0,32.0,30.16,WSW,247,3.0,8.0,100,0.00,,,0.00,Weather View 32 v70,2013-10-19 08:07:00,
2013-10-19 03:12:00,32.0,32.0,30.16,West,270,7.0,8.0,100,0.00,,,0.00,Weather View 32 v70,2013-10-19 08:12:00,
2013-10-19 03:17:00,32.0,32.0,30.16,WSW,247,5.0,8.0,100,0.00,,,0.00,Weather View 32 v70,2013-10-19 08:17:00,
2013-10-19 03:22:00,32.0,32.0,30.16,WSW,247,5.0,8.0,100,0.00,,,0.00,Weather View 32 v70,2013-10-19 08:22:00,
2013-10-19 03:27:00,33.0,33.0,30.15,WSW,247,3.0,8.0,100,0.00,,,0.00,Weather View 32 v70,2013-10-19 08:27:00,
2013-10-19 03:32:00,33.0,32.7,30.15,WSW,247,7.0,10.0,99,0.00,,,0.00,Weather View 32 v70,2013-10-19 08:32:00,
2013-10-19 03:37:00,33.0,32.7,30.15,WSW,247,4.0,10.0,99,0.00,,,0.00,Weather View 32 v70,2013-10-19 08:37:00,
2013-10-19 03:42:00,33.0,32.7,30.15,WSW,247,0.0,10.0,99,0.00,,,0.00,Weather View 32 v70,2013-10-19 08:42:00,
2013-10-19 03:47:00,33.0,32.5,30.14,WSW,247,3.0,10.0,98,0.00,,,0.00,Weather View 32 v70,2013-10-19 08:47:00,
2013-10-19 03:52:00,34.0,33.5,30.14,WSW,247,6.0,10.0,98,0.00,,,0.00,Weather View 32 v70,2013-10-19 08:52:00,
2013-10-19 03:57:00,34.0,33.2,30.14,WSW,247,1.0,10.0,97,0.00,,,0.00,Weather View 32 v70,2013-10-19 08:57:00,
2013-10-19 04:02:00,34.0,33.2,30.14,SSW,202,4.0,10.0,97,0.00,,,0.00,Weather View 32 v70,2013-10-19 09:02:00,
2013-10-19 04:07:00,34.0,33.2,30.13,WSW,247,3.0,10.0,97,0.00,,,0.00,Weather View 32 v70,2013-10-19 09:07:00,
2013-10-19 04:12:00,34.0,33.2,30.13,WSW,247,6.0,10.0,97,0.00,,,0.00,Weather View 32 v70,2013-10-19 09:12:00,
2013-10-19 04:17:00,34.0,33.2,30.13,WSW,247,5.0,10.0,97,0.00,,,0.00,Weather View 32 v70,2013-10-19 09:17:00,
2013-10-19 04:22:00,34.0,33.2,30.13,WSW,247,4.0,10.0,97,0.00,,,0.00,Weather View 32 v70,2013-10-19 09:22:00,
2013-10-19 04:27:00,33.0,32.2,30.13,WSW,247,7.0,10.0,97,0.00,,,0.00,Weather View 32 v70,2013-10-19 09:27:00,
2013-10-19 04:32:00,33.0,32.2,30.13,WSW,247,5.0,9.0,97,0.00,,,0.00,Weather View 32 v70,2013-10-19 09:32:00,
2013-10-19 04:37:00,33.0,32.2,30.12,WSW,247,5.0,9.0,97,0.00,,,0.00,Weather View 32 v70,2013-10-19 09:37:00,
2013-10-19 04:42:00,33.0,32.2,30.12,WSW,247,0.0,9.0,97,0.00,,,0.00,Weather View 32 v70,2013-10-19 09:42:00,
2013-10-19 04:47:00,33.0,32.2,30.12,WSW,247,6.0,9.0,97,0.00,,,0.00,Weather View 32 v70,2013-10-19 09:47:00,
2013-10-19 04:52:00,33.0,32.5,30.12,WSW,247,3.0,8.0,98,0.00,,,0.00,Weather View 32 v70,2013-10-19 09:52:00,
2013-10-19 04:57:00,33.0,32.5,30.12,WSW,247,2.0,8.0,98,0.00,,,0.00,Weather View 32 v70,2013-10-19 09:57:00,
2013-10-19 05:02:00,32.0,31.5,30.12,WSW,247,3.0,8.0,98,0.00,,,0.00,Weather View 32 v70,2013-10-19 10:02:00,
2013-10-19 05:07:00,32.0,31.8,30.12,WSW,247,4.0,8.0,99,0.00,,,0.00,Weather View 32 v70,2013-10-19 10:07:00,
2013-10-19 05:12:00,32.0,31.8,30.12,WSW,247,4.0,8.0,99,0.00,,,0.00,Weather View 32 v70,2013-10-19 10:12:00,
2013-10-19 05:17:00,32.0,31.8,30.12,WSW,247,3.0,8.0,99,0.00,,,0.00,Weather View 32 v70,2013-10-19 10:17:00,
2013-10-19 05:22:00,32.0,31.8,30.12,WSW,247,0.0,8.0,99,0.00,,,0.00,Weather View 32 v70,2013-10-19 10:22:00,
2013-10-19 05:27:00,31.0,30.5,30.12,WSW,247,1.0,8.0,98,0.00,,,0.00,Weather View 32 v70,2013-10-19 10:27:00,
2013-10-19 05:32:00,31.0,30.8,30.12,WSW,247,2.0,8.0,99,0.00,,,0.00,Weather View 32 v70,2013-10-19 10:32:00,
2013-10-19 05:37:00,31.0,30.8,30.12,WSW,247,0.0,8.0,99,0.00,,,0.00,Weather View 32 v70,2013-10-19 10:37:00,
2013-10-19 05:42:00,31.0,30.8,30.12,WSW,247,0.0,8.0,99,0.00,,,0.00,Weather View 32 v70,2013-10-19 10:42:00,
2013-10-19 05:47:00,31.0,31.0,30.13,WSW,247,0.0,8.0,100,0.00,,,0.00,Weather View 32 v70,2013-10-19 10:47:00,
2013-10-19 05:52:00,31.0,31.0,30.13,WSW,247,4.0,8.0,100,0.00,,,0.00,Weather View 32 v70,2013-10-19 10:52:00,
2013-10-19 05:57:00,31.0,31.0,30.13,WSW,247,7.0,8.0,100,0.00,,,0.00,Weather View 32 v70,2013-10-19 10:57:00,
2013-10-19 06:02:00,31.0,31.0,30.13,SSW,202,3.0,8.0,100,0.00,,,0.00,Weather View 32 v70,2013-10-19 11:02:00,
2013-10-19 06:07:00,31.0,31.0,30.13,SSW,202,2.0,8.0,100,0.00,,,0.00,Weather View 32 v70,2013-10-19 11:07:00,
2013-10-19 06:12:00,31.0,31.0,30.13,SSW,202,1.0,8.0,100,0.00,,,0.00,Weather View 32 v70,2013-10-19 11:12:00,
2013-10-19 06:17:00,31.0,31.0,30.13,SSW,202,3.0,8.0,100,0.00,,,0.00,Weather View 32 v70,2013-10-19 11:17:00,
2013-10-19 06:22:00,31.0,31.0,30.13,SSW,202,0.0,8.0,100,0.00,,,0.00,Weather View 32 v70,2013-10-19 11:22:00,
2013-10-19 06:27:00,31.0,31.0,30.13,SW,225,2.0,8.0,100,0.00,,,0.00,Weather View 32 v70,2013-10-19 11:27:00,
2013-10-19 06:32:00,31.0,31.0,30.13,NE,45,1.0,8.0,100,0.00,,,0.00,Weather View 32 v70,2013-10-19 11:32:00,
2013-10-19 06:37:00,30.0,30.0,30.12,WSW,247,2.0,8.0,100,0.00,,,0.00,Weather View 32 v70,2013-10-19 11:37:00,
2013-10-19 06:42:00,30.0,30.0,30.12,WSW,247,3.0,8.0,100,0.00,,,0.00,Weather View 32 v70,2013-10-19 11:42:00,
2013-10-19 06:47:00,30.0,30.0,30.12,SW,225,3.0,8.0,100,0.00,,,0.00,Weather View 32 v70,2013-10-19 11:47:00,
2013-10-19 06:52:00,31.0,31.0,30.12,SW,225,0.0,7.0,100,0.00,,,0.00,Weather View 32 v70,2013-10-19 11:52:00,
2013-10-19 06:57:00,30.0,30.0,30.12,SW,225,2.0,7.0,100,0.00,,,0.00,Weather View 32 v70,2013-10-19 11:57:00,
2013-10-19 07:02:00,30.0,30.0,30.12,SW,225,3.0,7.0,100,0.00,,,0.00,Weather View 32 v70,2013-10-19 12:02:00,
2013-10-19 07:07:00,31.0,31.0,30.12,SSW,202,4.0,7.0,100,0.00,,,0.00,Weather View 32 v70,2013-10-19 12:07:00,
2013-10-19 07:12:00,31.0,31.0,30.12,SSW,202,5.0,6.0,100,0.00,,,0.00,Weather View 32 v70,2013-10-19 12:12:00,
2013-10-19 07:17:00,31.0,31.0,30.11,SSW,202,5.0,6.0,100,0.00,,,0.00,Weather View 32 v70,2013-10-19 12:17:00,
2013-10-19 07:22:00,31.0,31.0,30.11,NE,45,3.0,8.0,100,0.00,,,0.00,Weather View 32 v70,2013-10-19 12:22:00,
2013-10-19 07:27:00,31.0,31.0,30.11,SW,225,2.0,8.0,100,0.00,,,0.00,Weather View 32 v70,2013-10-19 12:27:00,
2013-10-19 07:32:00,31.0,31.0,30.11,SSW,202,4.0,8.0,100,0.00,,,0.00,Weather View 32 v70,2013-10-19 12:32:00,
2013-10-19 07:37:00,31.0,31.0,30.11,SW,225,3.0,8.0,100,0.00,,,0.00,Weather View 32 v70,2013-10-19 12:37:00,
2013-10-19 07:42:00,31.0,31.0,30.11,SSW,202,4.0,8.0,100,0.00,,,0.00,Weather View 32 v70,2013-10-19 12:42:00,
2013-10-19 07:47:00,31.0,31.0,30.11,South,180,3.0,8.0,100,0.00,,,0.00,Weather View 32 v70,2013-10-19 12:47:00,
2013-10-19 07:52:00,31.0,31.0,30.11,SSW,202,2.0,8.0,100,0.00,,,0.00,Weather View 32 v70,2013-10-19 12:52:00,
2013-10-19 07:57:00,31.0,31.0,30.10,SSW,202,4.0,8.0,100,0.00,,,0.00,Weather View 32 v70,2013-10-19 12:57:00,
2013-10-19 08:02:00,31.0,31.0,30.10,SSW,202,3.0,8.0,100,0.00,,,0.00,Weather View 32 v70,2013-10-19 13:02:00,
2013-10-19 08:07:00,31.0,31.0,30.10,SSW,202,2.0,8.0,100,0.00,,,0.00,Weather View 32 v70,2013-10-19 13:07:00,
2013-10-19 08:12:00,31.0,31.0,30.10,SSW,202,1.0,8.0,100,0.00,,,0.00,Weather View 32 v70,2013-10-19 13:12:00,
2013-10-19 08:17:00,31.0,31.0,30.10,SSW,202,3.0,8.0,100,0.00,,,0.00,Weather View 32 v70,2013-10-19 13:17:00,
2013-10-19 08:22:00,32.0,32.0,30.10,SSW,202,4.0,7.0,100,0.00,,,0.00,Weather View 32 v70,2013-10-19 13:22:00,
2013-10-19 08:27:00,32.0,32.0,30.09,WSW,247,1.0,7.0,100,0.00,,,0.00,Weather View 32 v70,2013-10-19 13:27:00,
2013-10-19 08:32:00,32.0,31.8,30.09,WSW,247,6.0,8.0,99,0.00,,,0.00,Weather View 32 v70,2013-10-19 13:32:00,
2013-10-19 08:37:00,32.0,31.8,30.10,SE,135,5.0,9.0,99,0.00,,,0.00,Weather View 32 v70,2013-10-19 13:37:00,
2013-10-19 08:42:00,33.0,32.5,30.10,SW,225,4.0,10.0,98,0.00,,,0.00,Weather View 32 v70,2013-10-19 13:42:00,
2013-10-19 08:47:00,34.0,33.0,30.09,SW,225,3.0,11.0,96,0.00,,,0.00,Weather View 32 v70,2013-10-19 13:47:00,
2013-10-19 08:52:00,35.0,33.4,30.09,SSW,202,3.0,11.0,94,0.00,,,0.00,Weather View 32 v70,2013-10-19 13:52:00,
2013-10-19 08:57:00,36.0,33.6,30.06,SW,225,2.0,11.0,91,0.00,,,0.00,Weather View 32 v70,2013-10-19 13:57:00,
2013-10-19 09:02:00,37.0,34.1,30.06,SW,225,7.0,11.0,89,0.00,,,0.00,Weather View 32 v70,2013-10-19 14:02:00,
2013-10-19 09:07:00,37.0,33.5,30.05,WSW,247,6.0,11.0,87,0.00,,,0.00,Weather View 32 v70,2013-10-19 14:07:00,
2013-10-19 09:12:00,38.0,34.2,30.05,WSW,247,1.0,11.0,86,0.00,,,0.00,Weather View 32 v70,2013-10-19 14:12:00,
2013-10-19 09:17:00,39.0,34.6,30.03,WSW,247,1.0,11.0,84,0.00,,,0.00,Weather View 32 v70,2013-10-19 14:17:00,
2013-10-19 09:22:00,40.0,34.9,30.03,West,270,3.0,11.0,82,0.00,,,0.00,Weather View 32 v70,2013-10-19 14:22:00,
2013-10-19 09:27:00,40.0,34.0,30.02,SW,225,4.0,11.0,79,0.00,,,0.00,Weather View 32 v70,2013-10-19 14:27:00,
2013-10-19 09:32:00,40.0,33.7,30.02,SSE,157,3.0,11.0,78,0.00,,,0.00,Weather View 32 v70,2013-10-19 14:32:00,
2013-10-19 09:37:00,41.0,34.3,30.02,SW,225,3.0,11.0,77,0.00,,,0.00,Weather View 32 v70,2013-10-19 14:37:00,
2013-10-19 09:42:00,41.0,33.3,30.02,WSW,247,11.0,19.0,74,0.00,,,0.00,Weather View 32 v70,2013-10-19 14:42:00,
2013-10-19 09:47:00,42.0,34.0,30.01,WSW,247,9.0,19.0,73,0.00,,,0.00,Weather View 32 v70,2013-10-19 14:47:00,
2013-10-19 09:52:00,42.0,33.6,30.01,WSW,247,4.0,19.0,72,0.00,,,0.00,Weather View 32 v70,2013-10-19 14:52:00,
2013-10-19 09:57:00,43.0,33.5,30.00,WSW,247,13.0,19.0,69,0.00,,,0.00,Weather View 32 v70,2013-10-19 14:57:00,
2013-10-19 10:03:00,43.0,33.5,30.00,SSE,157,8.0,19.0,69,0.00,,,0.00,Weather View 32 v70,2013-10-19 15:03:00,
2013-10-19 10:08:00,44.0,34.1,30.00,WSW,247,7.0,19.0,68,0.00,,,0.00,Weather View 32 v70,2013-10-19 15:08:00,
2013-10-19 10:13:00,45.0,34.7,30.00,WSW,247,11.0,19.0,67,0.00,,,0.00,Weather View 32 v70,2013-10-19 15:13:00,
2013-10-19 10:18:00,45.0,33.9,30.00,West,270,8.0,19.0,65,0.00,,,0.00,Weather View 32 v70,2013-10-19 15:18:00,
2013-10-19 10:23:00,45.0,33.9,30.00,SW,225,6.0,26.0,65,0.00,,,0.00,Weather View 32 v70,2013-10-19 15:23:00,
2013-10-19 10:28:00,46.0,34.1,29.99,WSW,247,10.0,26.0,63,0.00,,,0.00,Weather View 32 v70,2013-10-19 15:28:00,
2013-10-19 10:33:00,47.0,34.6,29.99,WSW,247,5.0,26.0,62,0.00,,,0.00,Weather View 32 v70,2013-10-19 15:33:00,
2013-10-19 10:38:00,46.0,34.1,29.99,SW,225,6.0,26.0,63,0.00,,,0.00,Weather View 32 v70,2013-10-19 15:38:00,
2013-10-19 10:43:00,47.0,34.6,29.99,WSW,247,9.0,26.0,62,0.00,,,0.00,Weather View 32 v70,2013-10-19 15:43:00,
2013-10-19 10:48:00,48.0,34.8,29.98,WSW,247,4.0,26.0,60,0.00,,,0.00,Weather View 32 v70,2013-10-19 15:48:00,
2013-10-19 10:53:00,48.0,33.9,29.98,SSW,202,7.0,26.0,58,0.00,,,0.00,Weather View 32 v70,2013-10-19 15:53:00,
2013-10-19 10:58:00,49.0,34.8,29.98,West,270,3.0,26.0,58,0.00,,,0.00,Weather View 32 v70,2013-10-19 15:58:00,
2013-10-19 11:03:00,50.0,34.9,29.98,West,270,4.0,26.0,56,0.00,,,0.00,Weather View 32 v70,2013-10-19 16:03:00,
2013-10-19 11:08:00,50.0,34.9,29.96,SSW,202,7.0,26.0,56,0.00,,,0.00,Weather View 32 v70,2013-10-19 16:08:00,
2013-10-19 11:13:00,51.0,34.4,29.96,WSW,247,11.0,26.0,53,0.00,,,0.00,Weather View 32 v70,2013-10-19 16:13:00,
2013-10-19 11:18:00,51.0,34.0,29.95,WSW,247,12.0,26.0,52,0.00,,,0.00,Weather View 32 v70,2013-10-19 16:18:00,
2013-10-19 11:23:00,52.0,34.4,29.95,West,270,16.0,26.0,51,0.00,,,0.00,Weather View 32 v70,2013-10-19 16:23:00,
2013-10-19 11:28:00,51.0,33.0,29.95,WSW,247,9.0,22.0,50,0.00,,,0.00,Weather View 32 v70,2013-10-19 16:28:00,
2013-10-19 11:33:00,52.0,34.4,29.95,WSW,247,7.0,22.0,51,0.00,,,0.00,Weather View 32 v70,2013-10-19 16:33:00,
2013-10-19 11:38:00,53.0,34.8,29.95,WSW,247,10.0,22.0,50,0.00,,,0.00,Weather View 32 v70,2013-10-19 16:38:00,
2013-10-19 11:43:00,54.0,34.7,29.95,WSW,247,8.0,24.0,48,0.00,,,0.00,Weather View 32 v70,2013-10-19 16:43:00,
2013-10-19 11:48:00,54.0,33.1,29.93,NW,315,6.0,24.0,45,0.00,,,0.00,Weather View 32 v70,2013-10-19 16:48:00,
2013-10-19 11:53:00,55.0,32.9,29.93,WSW,247,13.0,24.0,43,0.00,,,0.00,Weather View 32 v70,2013-10-19 16:53:00,
2013-10-19 11:58:00,54.0,32.5,29.93,WSW,247,14.0,24.0,44,0.00,,,0.00,Weather View 32 v70,2013-10-19 16:58:00,
2013-10-19 12:03:00,55.0,32.9,29.93,WNW,292,15.0,24.0,43,0.00,,,0.00,Weather View 32 v70,2013-10-19 17:03:00,
2013-10-19 12:08:00,55.0,31.7,29.92,WSW,247,16.0,27.0,41,0.00,,,0.00,Weather View 32 v70,2013-10-19 17:08:00,
2013-10-19 12:13:00,56.0,32.6,29.92,WSW,247,14.0,27.0,41,0.00,,,0.00,Weather View 32 v70,2013-10-19 17:13:00,
2013-10-19 12:18:00,56.0,32.6,29.92,WNW,292,16.0,27.0,41,0.00,,,0.00,Weather View 32 v70,2013-10-19 17:18:00,
2013-10-19 12:23:00,57.0,32.2,29.92,WSW,247,10.0,27.0,39,0.00,,,0.00,Weather View 32 v70,2013-10-19 17:23:00,
2013-10-19 12:28:00,57.0,32.9,29.92,West,270,13.0,27.0,40,0.00,,,0.00,Weather View 32 v70,2013-10-19 17:28:00,
2013-10-19 12:33:00,57.0,32.2,29.92,WSW,247,12.0,27.0,39,0.00,,,0.00,Weather View 32 v70,2013-10-19 17:33:00,
2013-10-19 12:38:00,57.0,32.9,29.91,West,270,6.0,27.0,40,0.00,,,0.00,Weather View 32 v70,2013-10-19 17:38:00,
2013-10-19 12:43:00,58.0,32.5,29.91,WSW,247,19.0,27.0,38,0.00,,,0.00,Weather View 32 v70,2013-10-19 17:43:00,
2013-10-19 12:48:00,58.0,32.5,29.91,WNW,292,7.0,27.0,38,0.00,,,0.00,Weather View 32 v70,2013-10-19 17:48:00,
2013-10-19 12:53:00,58.0,32.5,29.91,WSW,247,19.0,27.0,38,0.00,,,0.00,Weather View 32 v70,2013-10-19 17:53:00,
2013-10-19 12:58:00,58.0,33.1,29.90,West,270,15.0,28.0,39,0.00,,,0.00,Weather View 32 v70,2013-10-19 17:58:00,
2013-10-19 13:03:00,58.0,33.1,29.90,WSW,247,15.0,28.0,39,0.00,,,0.00,Weather View 32 v70,2013-10-19 18:03:00,
2013-10-19 13:08:00,58.0,33.1,29.91,WSW,247,16.0,28.0,39,0.00,,,0.00,Weather View 32 v70,2013-10-19 18:08:00,
2013-10-19 13:13:00,59.0,34.0,29.91,West,270,16.0,28.0,39,0.00,,,0.00,Weather View 32 v70,2013-10-19 18:13:00,
2013-10-19 13:18:00,58.0,34.4,29.90,West,270,12.0,29.0,41,0.00,,,0.00,Weather View 32 v70,2013-10-19 18:18:00,
2013-10-19 13:23:00,58.0,33.1,29.90,WSW,247,21.0,29.0,39,0.00,,,0.00,Weather View 32 v70,2013-10-19 18:23:00,
2013-10-19 13:28:00,58.0,34.4,29.90,WNW,292,17.0,32.0,41,0.00,,,0.00,Weather View 32 v70,2013-10-19 18:28:00,
2013-10-19 13:33:00,58.0,34.4,29.90,WNW,292,16.0,32.0,41,0.00,,,0.00,Weather View 32 v70,2013-10-19 18:33:00,
2013-10-19 13:38:00,58.0,34.4,29.90,WSW,247,15.0,32.0,41,0.00,,,0.00,Weather View 32 v70,2013-10-19 18:38:00,
2013-10-19 13:43:00,59.0,34.7,29.90,WSW,247,14.0,32.0,40,0.00,,,0.00,Weather View 32 v70,2013-10-19 18:43:00,
2013-10-19 13:48:00,59.0,34.0,29.90,WNW,292,17.0,32.0,39,0.00,,,0.00,Weather View 32 v70,2013-10-19 18:48:00,
2013-10-19 13:53:00,59.0,34.0,29.90,WNW,292,12.0,32.0,39,0.00,,,0.00,Weather View 32 v70,2013-10-19 18:53:00,
2013-10-19 13:58:00,60.0,34.9,29.89,WNW,292,19.0,32.0,39,0.00,,,0.00,Weather View 32 v70,2013-10-19 18:58:00,
2013-10-19 14:03:00,60.0,34.3,29.89,WNW,292,19.0,32.0,38,0.00,,,0.00,Weather View 32 v70,2013-10-19 19:03:00,
2013-10-19 14:08:00,60.0,35.6,29.89,WNW,292,19.0,32.0,40,0.00,,,0.00,Weather View 32 v70,2013-10-19 19:08:00,
2013-10-19 14:13:00,60.0,35.6,29.88,West,270,16.0,32.0,40,0.00,,,0.00,Weather View 32 v70,2013-10-19 19:13:00,
2013-10-19 14:18:00,60.0,31.5,29.88,WSW,247,12.0,32.0,34,0.00,,,0.00,Weather View 32 v70,2013-10-19 19:18:00,
2013-10-19 14:23:00,60.0,34.9,29.88,WNW,292,13.0,32.0,39,0.00,,,0.00,Weather View 32 v70,2013-10-19 19:23:00,
2013-10-19 14:28:00,60.0,34.3,29.88,WSW,247,8.0,30.0,38,0.00,,,0.00,Weather View 32 v70,2013-10-19 19:28:00,
2013-10-19 14:34:00,60.0,32.9,29.87,WSW,247,11.0,29.0,36,0.00,,,0.00,Weather View 32 v70,2013-10-19 19:34:00,
2013-10-19 14:39:00,60.0,32.9,29.87,West,270,21.0,29.0,36,0.00,,,0.00,Weather View 32 v70,2013-10-19 19:39:00,
2013-10-19 14:44:00,60.0,31.5,29.87,West,270,21.0,27.0,34,0.00,,,0.00,Weather View 32 v70,2013-10-19 19:44:00,
2013-10-19 14:49:00,60.0,32.2,29.87,West,270,11.0,29.0,35,0.00,,,0.00,Weather View 32 v70,2013-10-19 19:49:00,
2013-10-19 14:54:00,61.0,33.1,29.87,West,270,12.0,29.0,35,0.00,,,0.00,Weather View 32 v70,2013-10-19 19:54:00,
2013-10-19 14:59:00,60.0,31.5,29.87,WNW,292,11.0,29.0,34,0.00,,,0.00,Weather View 32 v70,2013-10-19 19:59:00,
2013-10-19 15:04:00,61.0,33.8,29.86,WNW,292,5.0,29.0,36,0.00,,,0.00,Weather View 32 v70,2013-10-19 20:04:00,
2013-10-19 15:09:00,61.0,33.8,29.86,WSW,247,14.0,29.0,36,0.00,,,0.00,Weather View 32 v70,2013-10-19 20:09:00,
2013-10-19 15:14:00,60.0,32.9,29.87,West,270,12.0,29.0,36,0.00,,,0.00,Weather View 32 v70,2013-10-19 20:14:00,
2013-10-19 15:19:00,60.0,31.5,29.87,WSW,247,11.0,29.0,34,0.00,,,0.00,Weather View 32 v70,2013-10-19 20:19:00,
2013-10-19 15:24:00,61.0,31.6,29.87,West,270,13.0,29.0,33,0.00,,,0.00,Weather View 32 v70,2013-10-19 20:24:00,
2013-10-19 15:29:00,61.0,31.6,29.87,WNW,292,19.0,29.0,33,0.00,,,0.00,Weather View 32 v70,2013-10-19 20:29:00,
2013-10-19 15:34:00,61.0,33.1,29.88,WNW,292,15.0,29.0,35,0.00,,,0.00,Weather View 32 v70,2013-10-19 20:34:00,
2013-10-19 15:39:00,60.0,30.8,29.88,WNW,292,12.0,29.0,33,0.00,,,0.00,Weather View 32 v70,2013-10-19 20:39:00,
2013-10-19 15:44:00,60.0,32.2,29.88,WNW,292,10.0,29.0,35,0.00,,,0.00,Weather View 32 v70,2013-10-19 20:44:00,
2013-10-19 15:49:00,60.0,32.9,29.88,NE,45,3.0,25.0,36,0.00,,,0.00,Weather View 32 v70,2013-10-19 20:49:00,
2013-10-19 15:54:00,61.0,31.6,29.87,West,270,16.0,24.0,33,0.00,,,0.00,Weather View 32 v70,2013-10-19 20:54:00,
2013-10-19 15:59:00,61.0,31.6,29.87,West,270,10.0,27.0,33,0.00,,,0.00,Weather View 32 v70,2013-10-19 20:59:00,
2013-10-19 16:04:00,61.0,31.6,29.87,WNW,292,18.0,27.0,33,0.00,,,0.00,Weather View 32 v70,2013-10-19 21:04:00,
2013-10-19 16:09:00,61.0,31.6,29.87,West,270,12.0,27.0,33,0.00,,,0.00,Weather View 32 v70,2013-10-19 21:09:00,
2013-10-19 16:14:00,61.0,30.9,29.87,West,270,11.0,27.0,32,0.00,,,0.00,Weather View 32 v70,2013-10-19 21:14:00,
2013-10-19 16:19:00,61.0,31.6,29.87,West,270,10.0,27.0,33,0.00,,,0.00,Weather View 32 v70,2013-10-19 21:19:00,
2013-10-19 16:24:00,62.0,31.0,29.87,ENE,67,4.0,27.0,31,0.00,,,0.00,Weather View 32 v70,2013-10-19 21:24:00,
2013-10-19 16:29:00,61.0,30.9,29.87,West,270,14.0,27.0,32,0.00,,,0.00,Weather View 32 v70,2013-10-19 21:29:00,
2013-10-19 16:34:00,61.0,31.6,29.87,WNW,292,14.0,27.0,33,0.00,,,0.00,Weather View 32 v70,2013-10-19 21:34:00,
2013-10-19 16:39:00,61.0,31.6,29.87,WSW,247,11.0,27.0,33,0.00,,,0.00,Weather View 32 v70,2013-10-19 21:39:00,
2013-10-19 16:44:00,61.0,31.6,29.87,SW,225,4.0,27.0,33,0.00,,,0.00,Weather View 32 v70,2013-10-19 21:44:00,
2013-10-19 16:49:00,61.0,31.6,29.87,WNW,292,18.0,27.0,33,0.00,,,0.00,Weather View 32 v70,2013-10-19 21:49:00,
2013-10-19 16:54:00,61.0,31.6,29.87,West,270,12.0,27.0,33,0.00,,,0.00,Weather View 32 v70,2013-10-19 21:54:00,
2013-10-19 16:59:00,61.0,31.6,29.87,WNW,292,18.0,24.0,33,0.00,,,0.00,Weather View 32 v70,2013-10-19 21:59:00,
2013-10-19 17:04:00,61.0,30.9,29.87,West,270,6.0,24.0,32,0.00,,,0.00,Weather View 32 v70,2013-10-19 22:04:00,
2013-10-19 17:09:00,61.0,30.9,29.87,WNW,292,13.0,22.0,32,0.00,,,0.00,Weather View 32 v70,2013-10-19 22:09:00,
2013-10-19 17:14:00,61.0,30.9,29.88,WNW,292,13.0,22.0,32,0.00,,,0.00,Weather View 32 v70,2013-10-19 22:14:00,
2013-10-19 17:19:00,60.0,30.8,29.88,West,270,10.0,22.0,33,0.00,,,0.00,Weather View 32 v70,2013-10-19 22:19:00,
2013-10-19 17:24:00,60.0,30.8,29.88,West,270,9.0,22.0,33,0.00,,,0.00,Weather View 32 v70,2013-10-19 22:24:00,
2013-10-19 17:29:00,60.0,30.0,29.88,West,270,10.0,21.0,32,0.00,,,0.00,Weather View 32 v70,2013-10-19 22:29:00,
2013-10-19 17:34:00,60.0,30.8,29.88,WNW,292,9.0,21.0,33,0.00,,,0.00,Weather View 32 v70,2013-10-19 22:34:00,
2013-10-19 17:39:00,60.0,30.8,29.88,WNW,292,7.0,21.0,33,0.00,,,0.00,Weather View 32 v70,2013-10-19 22:39:00,
2013-10-19 17:44:00,60.0,30.8,29.89,West,270,7.0,21.0,33,0.00,,,0.00,Weather View 32 v70,2013-10-19 22:44:00,
2013-10-19 17:49:00,60.0,31.5,29.89,WNW,292,4.0,21.0,34,0.00,,,0.00,Weather View 32 v70,2013-10-19 22:49:00,
2013-10-19 17:54:00,59.0,31.3,29.89,WNW,292,5.0,20.0,35,0.00,,,0.00,Weather View 32 v70,2013-10-19 22:54:00,
2013-10-19 17:59:00,59.0,32.0,29.89,WNW,292,4.0,20.0,36,0.00,,,0.00,Weather View 32 v70,2013-10-19 22:59:00,
2013-10-19 18:04:00,59.0,32.0,29.89,WNW,292,3.0,20.0,36,0.00,,,0.00,Weather View 32 v70,2013-10-19 23:04:00,
2013-10-19 18:09:00,59.0,33.4,29.89,WNW,292,0.0,20.0,38,0.00,,,0.00,Weather View 32 v70,2013-10-19 23:09:00,
2013-10-19 18:14:00,58.0,32.5,29.90,WNW,292,0.0,20.0,38,0.00,,,0.00,Weather View 32 v70,2013-10-19 23:14:00,
2013-10-19 18:20:00,57.0,32.2,29.90,WNW,292,0.0,20.0,39,0.00,,,0.00,Weather View 32 v70,2013-10-19 23:20:00,
2013-10-19 18:25:00,56.0,32.6,29.91,WNW,292,0.0,20.0,41,0.00,,,0.00,Weather View 32 v70,2013-10-19 23:25:00,
2013-10-19 18:30:00,55.0,32.9,29.91,WNW,292,0.0,17.0,43,0.00,,,0.00,Weather View 32 v70,2013-10-19 23:30:00,
2013-10-19 18:35:00,53.0,31.6,29.92,WNW,292,0.0,16.0,44,0.00,,,0.00,Weather View 32 v70,2013-10-19 23:35:00,
2013-10-19 18:40:00,52.0,31.8,29.92,WNW,292,0.0,16.0,46,0.00,,,0.00,Weather View 32 v70,2013-10-19 23:40:00,
2013-10-19 18:45:00,51.0,30.9,29.94,WNW,292,0.0,10.0,46,0.00,,,0.00,Weather View 32 v70,2013-10-19 23:45:00,
2013-10-19 18:50:00,49.0,30.1,29.94,WNW,292,0.0,10.0,48,0.00,,,0.00,Weather View 32 v70,2013-10-19 23:50:00,
2013-10-19 18:55:00,48.0,29.7,29.95,WNW,292,0.0,8.0,49,0.00,,,0.00,Weather View 32 v70,2013-10-19 23:55:00,
2013-10-19 19:00:00,47.0,30.3,29.95,WNW,292,0.0,7.0,52,0.00,,,0.00,Weather View 32 v70,2013-10-20 00:00:00,
2013-10-19 19:05:00,46.0,30.7,29.96,WNW,292,0.0,6.0,55,0.00,,,0.00,Weather View 32 v70,2013-10-20 00:05:00,
2013-10-19 19:10:00,45.0,30.2,29.96,WNW,292,0.0,4.0,56,0.00,,,0.00,Weather View 32 v70,2013-10-20 00:10:00,
2013-10-19 19:15:00,44.0,30.6,29.97,WNW,292,0.0,0.0,59,0.00,,,0.00,Weather View 32 v70,2013-10-20 00:15:00,
2013-10-19 19:20:00,43.0,30.0,29.97,WNW,292,0.0,0.0,60,0.00,,,0.00,Weather View 32 v70,2013-10-20 00:20:00,
2013-10-19 19:25:00,43.0,30.5,29.98,WNW,292,0.0,0.0,61,0.00,,,0.00,Weather View 32 v70,2013-10-20 00:25:00,
2013-10-19 19:30:00,42.0,30.7,29.98,WNW,292,0.0,0.0,64,0.00,,,0.00,Weather View 32 v70,2013-10-20 00:30:00,
2013-10-19 19:35:00,42.0,30.7,29.99,WNW,292,0.0,0.0,64,0.00,,,0.00,Weather View 32 v70,2013-10-20 00:35:00,
2013-10-19 19:40:00,41.0,30.9,29.99,WNW,292,0.0,0.0,67,0.00,,,0.00,Weather View 32 v70,2013-10-20 00:40:00,
2013-10-19 19:45:00,41.0,31.2,29.99,WNW,292,0.0,0.0,68,0.00,,,0.00,Weather View 32 v70,2013-10-20 00:45:00,
2013-10-19 19:50:00,41.0,32.0,29.99,WNW,292,0.0,2.0,70,0.00,,,0.00,Weather View 32 v70,2013-10-20 00:50:00,
2013-10-19 19:55:00,41.0,33.0,30.00,WNW,292,0.0,2.0,73,0.00,,,0.00,Weather View 32 v70,2013-10-20 00:55:00,
2013-10-19 20:00:00,40.0,32.7,30.00,WNW,292,0.0,2.0,75,0.00,,,0.00,Weather View 32 v70,2013-10-20 01:00:00,
2013-10-19 20:05:00,39.0,31.7,30.00,WNW,292,0.0,2.0,75,0.00,,,0.00,Weather View 32 v70,2013-10-20 01:05:00,
2013-10-19 20:10:00,39.0,32.1,30.00,WNW,292,0.0,2.0,76,0.00,,,0.00,Weather View 32 v70,2013-10-20 01:10:00,
2013-10-19 20:15:00,38.0,31.1,30.00,WNW,292,0.0,2.0,76,0.00,,,0.00,Weather View 32 v70,2013-10-20 01:15:00,
2013-10-19 20:20:00,38.0,32.1,30.00,WNW,292,0.0,2.0,79,0.00,,,0.00,Weather View 32 v70,2013-10-20 01:20:00,
2013-10-19 20:25:00,38.0,32.4,30.00,WNW,292,0.0,2.0,80,0.00,,,0.00,Weather View 32 v70,2013-10-20 01:25:00,
2013-10-19 20:30:00,38.0,32.7,30.00,WNW,292,0.0,2.0,81,0.00,,,0.00,Weather View 32 v70,2013-10-20 01:30:00,
2013-10-19 20:35:00,38.0,33.6,30.00,WNW,292,0.0,2.0,84,0.00,,,0.00,Weather View 32 v70,2013-10-20 01:35:00,
2013-10-19 20:40:00,38.0,33.9,30.00,WNW,292,0.0,2.0,85,0.00,,,0.00,Weather View 32 v70,2013-10-20 01:40:00,
2013-10-19 20:45:00,38.0,33.9,30.00,WNW,292,0.0,2.0,85,0.00,,,0.00,Weather View 32 v70,2013-10-20 01:45:00,
2013-10-19 20:50:00,39.0,34.6,30.00,WNW,292,0.0,2.0,84,0.00,,,0.00,Weather View 32 v70,2013-10-20 01:50:00,
2013-10-19 20:55:00,38.0,33.9,30.00,WNW,292,0.0,2.0,85,0.00,,,0.00,Weather View 32 v70,2013-10-20 01:55:00,
2013-10-19 21:00:00,38.0,33.9,30.00,WNW,292,0.0,1.0,85,0.00,,,0.00,Weather View 32 v70,2013-10-20 02:00:00,
2013-10-19 21:05:00,38.0,33.9,30.01,WNW,292,0.0,0.0,85,0.00,,,0.00,Weather View 32 v70,2013-10-20 02:05:00,
2013-10-19 21:10:00,37.0,33.2,30.01,WNW,292,0.0,0.0,86,0.00,,,0.00,Weather View 32 v70,2013-10-20 02:10:00,
2013-10-19 21:15:00,37.0,33.5,30.00,WNW,292,0.0,0.0,87,0.00,,,0.00,Weather View 32 v70,2013-10-20 02:15:00,
2013-10-19 21:20:00,36.0,32.5,30.00,WNW,292,0.0,0.0,87,0.00,,,0.00,Weather View 32 v70,2013-10-20 02:20:00,
2013-10-19 21:25:00,36.0,32.8,30.01,WNW,292,0.0,0.0,88,0.00,,,0.00,Weather View 32 v70,2013-10-20 02:25:00,
2013-10-19 21:30:00,36.0,33.1,30.01,WNW,292,0.0,0.0,89,0.00,,,0.00,Weather View 32 v70,2013-10-20 02:30:00,
2013-10-19 21:35:00,36.0,33.1,30.01,WNW,292,0.0,0.0,89,0.00,,,0.00,Weather View 32 v70,2013-10-20 02:35:00,
2013-10-19 21:40:00,36.0,33.1,30.01,WNW,292,0.0,0.0,89,0.00,,,0.00,Weather View 32 v70,2013-10-20 02:40:00,
2013-10-19 21:45:00,36.0,33.1,30.01,WNW,292,0.0,0.0,89,0.00,,,0.00,Weather View 32 v70,2013-10-20 02:45:00,
2013-10-19 21:50:00,36.0,33.1,30.01,WNW,292,0.0,0.0,89,0.00,,,0.00,Weather View 32 v70,2013-10-20 02:50:00,
2013-10-19 21:55:00,36.0,33.1,30.01,WNW,292,0.0,0.0,89,0.00,,,0.00,Weather View 32 v70,2013-10-20 02:55:00,
2013-10-19 22:00:00,35.0,32.4,30.01,WNW,292,0.0,0.0,90,0.00,,,0.00,Weather View 32 v70,2013-10-20 03:00:00,
2013-10-19 22:05:00,36.0,33.3,30.01,WNW,292,0.0,0.0,90,0.00,,,0.00,Weather View 32 v70,2013-10-20 03:05:00,
2013-10-19 22:10:00,36.0,33.3,30.01,WNW,292,0.0,0.0,90,0.00,,,0.00,Weather View 32 v70,2013-10-20 03:10:00,
2013-10-19 22:15:00,35.0,32.4,30.02,WNW,292,0.0,0.0,90,0.00,,,0.00,Weather View 32 v70,2013-10-20 03:15:00,
2013-10-19 22:20:00,35.0,32.6,30.02,WNW,292,0.0,0.0,91,0.00,,,0.00,Weather View 32 v70,2013-10-20 03:20:00,
2013-10-19 22:25:00,35.0,32.6,30.02,WNW,292,0.0,0.0,91,0.00,,,0.00,Weather View 32 v70,2013-10-20 03:25:00,
2013-10-19 22:30:00,35.0,33.2,30.02,WNW,292,0.0,0.0,93,0.00,,,0.00,Weather View 32 v70,2013-10-20 03:30:00,
2013-10-19 22:35:00,35.0,33.2,30.02,WNW,292,0.0,0.0,93,0.00,,,0.00,Weather View 32 v70,2013-10-20 03:35:00,
2013-10-19 22:40:00,34.0,32.5,30.02,WNW,292,0.0,0.0,94,0.00,,,0.00,Weather View 32 v70,2013-10-20 03:40:00,
2013-10-19 22:45:00,35.0,33.2,30.01,WNW,292,0.0,0.0,93,0.00,,,0.00,Weather View 32 v70,2013-10-20 03:45:00,
2013-10-19 22:50:00,35.0,33.2,30.01,WNW,292,0.0,0.0,93,0.00,,,0.00,Weather View 32 v70,2013-10-20 03:50:00,
2013-10-19 22:55:00,35.0,33.2,30.01,WNW,292,0.0,0.0,93,0.00,,,0.00,Weather View 32 v70,2013-10-20 03:55:00,
2013-10-19 23:00:00,35.0,33.2,30.01,WNW,292,0.0,0.0,93,0.00,,,0.00,Weather View 32 v70,2013-10-20 04:00:00,
2013-10-19 23:01:00,34.0,32.5,30.01,WNW,292,0.0,0.0,94,0.00,,,0.00,Weather View 32 v70,2013-10-20 04:01:00,
2013-10-19 23:02:00,34.0,32.5,30.01,WNW,292,0.0,0.0,94,0.00,,,0.00,Weather View 32 v70,2013-10-20 04:02:00,
2013-10-19 23:07:00,34.0,32.5,30.01,WNW,292,0.0,0.0,94,0.00,,,0.00,Weather View 32 v70,2013-10-20 04:07:00,
2013-10-19 23:12:00,35.0,33.4,30.01,WNW,292,0.0,0.0,94,0.00,,,0.00,Weather View 32 v70,2013-10-20 04:12:00,
2013-10-19 23:17:00,35.0,33.2,30.01,WNW,292,0.0,0.0,93,0.00,,,0.00,Weather View 32 v70,2013-10-20 04:17:00,
2013-10-19 23:22:00,35.0,33.2,30.01,WNW,292,0.0,0.0,93,0.00,,,0.00,Weather View 32 v70,2013-10-20 04:22:00,
2013-10-19 23:27:00,35.0,33.2,30.01,WNW,292,0.0,0.0,93,0.00,,,0.00,Weather View 32 v70,2013-10-20 04:27:00,
2013-10-19 23:32:00,35.0,33.2,30.01,WNW,292,0.0,0.0,93,0.00,,,0.00,Weather View 32 v70,2013-10-20 04:32:00,
2013-10-19 23:37:00,35.0,33.2,30.00,WNW,292,0.0,0.0,93,0.00,,,0.00,Weather View 32 v70,2013-10-20 04:37:00,
2013-10-19 23:42:00,36.0,34.4,30.00,WNW,292,0.0,0.0,94,0.00,,,0.00,Weather View 32 v70,2013-10-20 04:42:00,
2013-10-19 23:47:00,36.0,34.2,30.00,WNW,292,0.0,0.0,93,0.00,,,0.00,Weather View 32 v70,2013-10-20 04:47:00,
2013-10-19 23:52:00,36.0,34.4,30.00,WNW,292,0.0,0.0,94,0.00,,,0.00,Weather View 32 v70,2013-10-20 04:52:00,
2013-10-19 23:57:00,36.0,34.7,29.99,WNW,292,2.0,4.0,95,0.00,,,0.00,Weather View 32 v70,2013-10-20 04:57:00,